Regional Weather Roundup
Issued by NWS Bismarck, ND

Home | Current Version | Previous Version | Text Only | Print | Product List | Glossary On
Versions: 1 2 3 4 5 6 7 8 9 10 11 12 13 14 15 16 17 18 19 20 21 22 23 24 25 26 27 28 29 30 31 32 33 34 35 36 37 38 39 40 41 42 43 44 45 46 47 48 49 50
000
ASUS43 KBIS 271202
RWRBIS

NWR BROADCAST TEXT
NATIONAL WEATHER SERVICE BISMARCK ND
700 AM CDT TUE JUN 27 2017

NOTE: "FAIR" INDICATES FEW OR NO CLOUDS BELOW 12,000 FEET WITH NO
SIGNIFICANT WEATHER AND/OR OBSTRUCTIONS TO VISIBILITY.


CITY           SKY/WX    TMP DP  RH WIND       PRES   REMARKS
WILLISTON      MOCLDY    66  42  41 VRB3      29.68F
MINOT          CLOUDY    63  38  39 S20G32    29.76F
MINOT AFB      CLOUDY    62  39  42 S16G24    29.74F
BISMARCK       CLOUDY    59  41  51 SE12      29.84F
DICKINSON      PTCLDY    57  37  47 S20       29.72F
GARRISON         N/A     59  41  51 S12       29.79F
HETTINGER ARPT PTCLDY    58  40  51 SE13      29.78F
JAMESTOWN      CLOUDY    55  41  59 S10       29.93F
HAZEN          FAIR      61  37  41 S26G36    29.76F
LINTON         FAIR     N/A N/A N/A SE20G28   29.88F
MANDAN         FAIR      57  39  51 SE17      29.83F
STANLEY        FAIR      61  39  44 S21       29.75F
TIOGA          PTSUNNY   63  39  42 S28       29.70F
WATFORD CITY   FAIR      63  39  42 S10       29.71S
$$

CITY           SKY/WX    TMP DP  RH WIND       PRES   REMARKS
GRAND FORKS    CLOUDY    53  45  74 S9        29.93F
GRAND FORKS AF CLOUDY    56  42  60 S10       29.93S
DEVILS LAKE    CLOUDY    58  43  57 S17G24    29.89F
FARGO          SUNNY     57  42  57 S13       29.99S
CAVALIER       FAIR      55  43  62 S10       29.88S
GRAFTON        FAIR      52  45  76 S9        29.93S
GWINNER        CLOUDY    54  45  71 S10       29.99F
LANGDON        FAIR      52  46  82 S14       29.88F
ROLLA            N/A     52  45  76 S8        29.85F
$$

CITY           SKY/WX    TMP DP  RH WIND       PRES   REMARKS
ABERDEEN       PTSUNNY   49  43  80 S9        29.98F
MOBRIDGE       PTCLDY    60  43  53 SE18      29.86F
BUFFALO          N/A     57  41  55 SE9       29.69S
RAPID CITY     CLEAR     60  50  69 SE15      29.82F
GLASGOW        CLOUDY    61  41  47 E8        29.61S
SIDNEY         CLOUDY    64  41  42 S8        29.68R
WOLF POINT     CLOUDY    63  41  44 E5        29.63R
GLENDIVE       PTCLDY    60  41  49 SE7       29.67S
MILES CITY     CLOUDY    66  40  38 S12       29.65R
BAKER          CLOUDY    58  39  49 SE17      29.71F
$$

CITY           SKY/WX    TMP DP  RH WIND       PRES   REMARKS
BILLINGS       CLOUDY    72  45  37 W10       29.75S
GREAT FALLS    MOCLDY    63  49  60 SW14      29.75F
$$





USA.gov is the U.S. government's official web portal to all federal, state and local government web resources and services.